Location: Unspecified
(0.0000°N, 0.0000°E)
Time: 17:05:06
(UTC+00:00)

Altair - Pass Details

Date: 12 February 2023
Orbit: 1501 x 1682 km, 47.2° (Epoch: 19 March)

Event Time Altitude Azimuth Distance (km) Brightness Sun altitude
Exits shadow 04:12:35 17° 223° (SW) 3,396 9.0 -29.4°
Drops below altitude 10° 04:17:43 10° 190° (S) 3,863 9.6 -28.2°
Sets 04:22:32 0° 170° (S) 4,815 10.4 -27.1°
